Wind_Speed
15 15 14 13 12 11 9 7 5 5 5 5 5 7 8 10 11 13 14 16 18 19 18 16 16 15 14 13 12 12 11 10 8 8 7 6 5 3 3 4 5 7 8 8
17 16 16 15 14 13 11 10 8 7 6 5 5 6 7 8 9 11 13 15 16 17 18 17 16 15 14 13 12 12 12 10 9 8 8 6 5 3 3 4 5 6 8 9
18 19 18 17 16 15 13 12 11 10 7 6 5 5 6 7 8 10 12 13 15 15 16 16 15 15 14 14 13 12 12 11 10 9 8 7 5 5 5 6 7 8 9 10
21 20 19 18 17 16 15 14 14 12 10 9 7 6 5 5 7 10 11 12 13 14 14 14 15 15 14 14 14 14 13 12 11 11 10 8 7 6 6 6 7 9 9 10
23 22 20 18 18 17 16 15 15 14 12 10 9 7 5 5 6 8 10 11 12 13 14 14 14 13 13 14 14 14 14 13 12 11 10 10 9 7 6 6 7 8 9 10
25 23 21 20 19 18 17 17 16 15 14 12 11 8 5 5 6 7 8 10 11 12 14 13 13 13 14 14 14 14 14 13 12 11 11 11 10 9 7 6 7 7 8 10
26 25 23 21 20 19 18 18 17 16 16 14 12 10 8 7 7 7 7 9 10 12 13 14 13 13 13 14 14 13 13 13 12 11 11 12 12 12 9 7 7 7 8 9
28 26 25 23 22 21 21 19 18 18 17 16 15 13 10 10 9 8 8 9 10 12 14 14 13 12 12 13 13 14 13 13 13 12 12 11 11 11 11 10 8 7 8 9
30 28 26 25 24 23 22 21 20 20 19 18 17 15 13 11 10 9 9 10 11 12 13 14 14 12 12 13 14 14 13 12 12 13 12 12 11 12 11 11 9 8 8 8
32 31 29 28 27 26 25 23 22 21 21 20 18 17 14 13 12 11 11 12 12 12 13 14 14 13 13 14 13 13 13 13 12 12 13 13 12 12 12 11 10 8 8 9
34 33 31 31 30 28 27 26 25 23 22 21 20 18 16 15 15 14 14 14 14 13 13 14 14 13 14 14 13 13 13 13 13 13 13 13 13 13 12 11 10 10 9 9
36 36 34 32 32 31 29 27 26 25 24 23 22 19 17 17 17 16 15 15 14 14 14 14 14 13 14 14 14 13 13 13 13 14 14 14 14 13 13 12 11 11 11 11
37 37 36 35 34 33 32 29 28 26 26 25 24 20 18 19 19 18 17 16 15 15 16 15 14 14 14 14 14 13 13 13 13 14 14 14 15 15 14 13 13 13 12 12
37 38 37 35 33 33 32 30 29 28 28 26 24 21 19 19 19 18 17 17 16 16 15 15 15 15 15 15 15 14 14 14 15 15 16 16 16 16 16 16 15 14 14 14
38 38 37 36 34 34 33 32 32 31 29 28 25 23 20 20 19 19 18 18 18 17 16 16 17 16 15 16 15 15 15 15 16 16 17 17 17 17 18 17 17 16 16 16
39 39 38 37 36 35 35 34 33 32 31 30 27 26 23 21 20 20 19 19 18 18 18 18 18 18 17 16 16 16 16 16 16 17 17 18 18 18 18 18 18 19 18 17
40 40 39 38 36 36 38 36 35 34 33 32 30 27 25 24 23 22 21 20 19 19 19 20 20 19 19 18 17 17 18 17 17 18 18 19 19 19 20 20 20 20 20 19
41 40 40 39 37 39 37 35 36 35 34 34 33 31 29 27 26 24 23 22 21 21 21 21 20 21 21 20 19 19 20 20 20 21 21 21 21 21 21 21 21 21 20 19
42 41 40 40 39 39 38 36 36 36 36 35 35 33 32 30 29 27 25 24 24 23 23 23 23 23 22 22 22 22 22 22 23 23 23 23 23 24 23 22 23 22 21 21
44 43 42 41 41 40 39 37 36 36 36 36 36 34 33 32 31 28 27 26 26 26 27 27 26 26 25 24 24 25 26 25 25 25 25 25 25 25 25 25 25 25 24 23
46 45 44 43 43 42 40 39 38 38 38 36 37 36 35 34 33 32 31 29 29 28 28 28 28 29 28 27 28 29 28 28 28 27 28 28 28 28 27 27 27 27 26 25
48 48 47 46 45 44 43 42 41 40 39 39 38 37 36 35 35 34 33 32 31 31 31 31 30 31 32 31 31 32 32 31 31 30 31 30 31 31 31 30 29 28 28 27
49 49 49 49 47 46 45 45 44 43 41 40 39 38 37 36 36 35 35 35 35 35 34 34 34 34 35 35 35 36 35 35 35 34 34 34 34 34 34 33 32 29 28 29
50 50 50 51 50 49 47 46 45 45 44 43 42 40 39 39 38 38 38 38 38 38 37 37 37 37 37 38 38 38 39 40 38 37 37 37 36 35 35 35 33 31 30 31
50 49 50 50 51 50 49 48 47 46 46 45 43 42 42 41 41 41 40 40 40 40 39 40 40 40 40 41 41 42 42 42 41 40 39 38 37 36 35 34 33 32 32 33
47 48 48 49 49 49 49 48 46 46 45 44 43 43 42 42 42 42 42 42 41 41 41 41 41 41 41 42 42 43 43 43 43 41 40 39 38 37 36 34 34 34 34 35
Wind_Direction
210 210 213 221 227 233 240 248 262 290 315 340 5 13 15 17 20 19 20 19 20 22 23 22 21 23 23 23 22 23 18 13 12 10 6 1 352 321 281 247 242 232 231 233
213 213 217 222 228 233 241 250 260 276 296 318 345 359 8 16 16 16 17 17 16 18 18 18 20 20 18 16 18 19 16 14 10 5 2 1 351 329 305 268 260 245 235 238
215 217 221 224 229 232 242 251 258 267 282 296 319 344 353 5 8 12 14 16 16 15 15 14 14 13 14 13 13 12 11 8 4 4 2 356 337 314 301 279 262 255 248 242
218 221 226 229 231 234 241 252 259 267 272 281 300 319 332 343 360 8 9 12 13 10 11 11 9 9 9 12 12 10 7 4 1 1 0 355 341 322 308 293 269 259 250 241
221 223 227 230 233 237 241 252 259 265 267 273 285 303 320 331 349 357 2 7 7 6 7 7 6 6 4 6 7 5 2 0 359 359 356 354 346 330 314 302 283 261 251 247
224 226 228 229 234 240 244 250 257 259 259 262 272 284 299 311 322 336 351 359 1 4 5 5 2 0 0 0 360 358 358 356 353 352 353 353 349 342 327 312 293 270 257 254
226 228 229 231 235 240 245 247 250 252 254 256 263 269 281 295 304 315 336 351 356 1 5 3 358 356 356 355 355 355 354 356 352 350 351 351 351 348 344 326 307 284 264 260
227 228 230 232 235 239 242 244 246 249 251 252 257 263 273 283 295 307 322 339 346 354 358 359 358 357 355 353 353 353 352 352 353 352 350 349 346 343 341 334 316 301 278 271
228 229 230 232 234 235 237 240 243 246 248 249 255 262 266 274 285 297 313 325 336 344 351 353 355 357 354 352 352 351 351 350 351 352 349 343 342 340 336 333 326 309 298 285
228 228 229 231 233 233 235 238 241 244 246 248 253 259 267 272 279 289 303 315 324 333 341 345 347 350 350 349 348 349 347 345 345 346 347 344 340 339 336 331 327 322 309 297
229 229 229 230 233 235 236 238 242 245 249 251 252 256 263 268 274 283 293 302 311 319 329 337 342 343 346 346 345 347 346 343 342 342 343 343 341 339 336 332 326 319 318 310
230 231 230 230 232 234 236 238 241 244 248 251 255 255 259 264 269 276 284 292 299 309 318 327 333 335 340 342 345 347 348 346 344 342 340 339 340 339 335 332 328 321 314 311
230 231 231 229 230 233 236 239 242 245 247 251 255 259 260 263 266 270 277 283 290 301 308 316 322 326 331 336 339 340 344 344 342 341 338 336 337 336 332 328 326 322 317 312
232 233 233 234 235 236 238 239 242 246 250 254 258 263 262 265 266 269 272 277 283 293 300 309 314 318 323 329 332 332 335 339 339 338 335 334 333 333 332 329 326 322 316 312
233 234 235 234 232 232 236 238 242 246 250 254 258 261 264 267 269 268 268 272 279 288 294 301 307 311 314 320 324 326 327 330 333 334 333 332 330 330 329 327 324 321 316 312
233 235 236 236 234 231 233 236 239 243 247 252 256 260 263 267 269 268 269 272 277 286 290 295 299 302 306 311 314 317 320 322 324 327 328 329 326 324 325 325 322 318 314 309
233 234 235 236 235 233 233 235 238 242 246 251 255 260 262 265 269 268 268 270 276 281 285 291 294 297 301 306 307 309 313 313 315 318 320 320 322 320 319 320 318 317 315 310
232 234 236 236 234 235 237 237 239 242 245 249 253 258 262 264 266 267 269 272 274 277 281 287 289 292 296 301 302 303 305 308 309 311 312 313 316 316 314 314 314 314 314 315
230 232 235 236 237 238 238 238 240 242 245 249 254 258 261 262 264 266 268 270 272 274 276 280 283 286 288 292 296 297 300 302 304 304 306 308 310 312 310 309 309 309 309 310
230 231 234 237 238 239 241 242 243 246 248 250 253 257 260 260 261 264 265 266 269 272 275 277 279 281 282 286 290 294 295 296 298 300 302 304 304 306 307 306 305 303 304 305
231 232 233 236 240 242 243 245 246 248 250 252 255 257 260 260 261 261 262 262 265 268 272 273 276 277 277 281 285 290 291 291 294 295 297 298 299 300 301 301 301 299 299 299
232 233 234 236 239 242 244 247 248 251 252 253 255 257 259 259 260 260 261 261 262 264 267 269 272 276 277 279 282 284 287 288 291 293 293 293 296 297 297 297 298 297 296 296
233 234 235 237 240 243 245 248 250 251 254 255 256 258 258 257 258 259 260 260 261 263 266 268 269 273 276 279 281 283 286 289 289 292 292 293 293 295 295 293 293 293 294 294
233 235 237 239 240 242 245 247 250 252 254 256 257 258 259 258 258 259 261 261 262 264 265 266 268 271 273 275 278 280 285 288 288 289 290 291 292 293 293 291 290 291 292 293
235 236 238 240 242 243 245 247 249 252 254 257 258 259 259 259 258 259 260 260 261 262 263 265 267 268 269 271 276 280 284 286 286 288 290 292 291 295 295 293 291 291 293 293
236 237 238 240 242 244 246 247 249 251 253 254 256 257 257 258 259 260 260 260 260 261 263 264 266 266 267 269 274 279 282 285 286 288 290 291 291 291 293 292 291 291 292 292
Height
5925 5927 5928 5929 5931 5932 5933 5934 5934 5934 5934 5934 5934 5934 5934 5932 5931 5929 5927 5924 5922 5920 5917 5915 5913 5911 5909 5907 5905 5902 5901 5899 5898 5897 5896 5895 5894 5894 5894 5894 5895 5895 5896 5897
5924 5925 5926 5928 5929 5931 5932 5933 5933 5934 5934 5934 5934 5934 5933 5933 5932 5930 5928 5925 5923 5921 5918 5916 5914 5912 5910 5908 5906 5903 5901 5900 5898 5897 5896 5895 5894 5894 5893 5893 5894 5894 5895 5896
5921 5923 5924 5926 5928 5929 5931 5932 5932 5933 5933 5933 5934 5934 5934 5933 5932 5931 5929 5926 5924 5922 5919 5917 5915 5913 5911 5909 5906 5904 5902 5900 5898 5897 5896 5895 5893 5893 5892 5892 5893 5893 5893 5894
5917 5919 5922 5924 5926 5928 5929 5930 5931 5931 5932 5932 5933 5933 5934 5933 5932 5930 5929 5927 5925 5922 5920 5917 5915 5914 5911 5909 5907 5905 5903 5901 5898 5897 5895 5894 5893 5892 5891 5891 5891 5891 5891 5892
5914 5916 5919 5921 5924 5925 5927 5928 5929 5929 5930 5931 5931 5932 5933 5932 5931 5930 5929 5927 5925 5923 5920 5918 5916 5914 5912 5909 5907 5905 5903 5901 5899 5897 5895 5893 5892 5891 5890 5889 5889 5889 5889 5890
5910 5913 5916 5919 5921 5922 5924 5925 5926 5927 5928 5929 5930 5931 5932 5931 5931 5930 5928 5926 5924 5923 5920 5918 5915 5914 5911 5909 5907 5905 5903 5901 5899 5897 5895 5893 5891 5890 5889 5888 5888 5887 5887 5888
5907 5910 5913 5915 5917 5919 5921 5923 5924 5925 5926 5927 5928 5928 5930 5930 5929 5929 5927 5926 5924 5922 5920 5918 5915 5913 5911 5909 5907 5905 5903 5901 5899 5897 5895 5893 5892 5890 5888 5887 5886 5886 5886 5886
5902 5906 5909 5911 5914 5916 5917 5920 5922 5923 5923 5924 5925 5926 5928 5928 5928 5927 5926 5925 5923 5922 5920 5917 5915 5913 5911 5909 5907 5905 5903 5901 5899 5897 5895 5893 5891 5890 5888 5886 5885 5884 5884 5884
5897 5901 5904 5907 5909 5911 5913 5915 5917 5919 5920 5921 5922 5924 5925 5926 5926 5926 5925 5924 5922 5921 5919 5917 5914 5912 5911 5909 5907 5905 5903 5900 5898 5896 5894 5893 5891 5889 5887 5885 5884 5883 5882 5882
5891 5895 5899 5901 5904 5906 5909 5911 5913 5914 5916 5917 5919 5920 5922 5923 5923 5923 5923 5922 5921 5919 5918 5916 5914 5912 5910 5908 5906 5904 5902 5900 5898 5896 5894 5892 5890 5888 5887 5885 5883 5882 5881 5880
5885 5889 5893 5896 5898 5901 5905 5907 5908 5910 5912 5914 5915 5919 5919 5920 5920 5920 5920 5919 5919 5918 5916 5915 5913 5911 5909 5908 5905 5903 5901 5899 5897 5895 5893 5891 5889 5887 5886 5884 5882 5881 5879 5878
5878 5882 5886 5891 5893 5895 5898 5901 5904 5906 5908 5910 5911 5917 5915 5916 5916 5917 5917 5917 5916 5915 5914 5913 5911 5910 5908 5906 5904 5902 5900 5898 5896 5894 5892 5890 5888 5886 5884 5882 5881 5879 5878 5876
5871 5875 5880 5884 5888 5891 5893 5896 5899 5901 5903 5904 5907 5912 5911 5912 5912 5913 5914 5914 5913 5913 5912 5911 5909 5908 5907 5905 5903 5901 5899 5897 5895 5893 5891 5889 5887 5885 5883 5881 5879 5877 5875 5874
5864 5868 5874 5879 5883 5886 5888 5891 5894 5896 5898 5900 5902 5905 5907 5907 5908 5909 5910 5910 5910 5909 5909 5908 5907 5906 5904 5903 5901 5899 5897 5896 5894 5892 5890 5888 5886 5883 5881 5879 5877 5875 5873 5871
5857 5861 5866 5871 5876 5878 5882 5885 5888 5890 5893 5895 5898 5900 5902 5902 5903 5905 5905 5906 5906 5906 5905 5905 5904 5903 5901 5900 5899 5897 5895 5894 5892 5890 5888 5886 5883 5881 5879 5876 5874 5872 5870 5868
5849 5854 5859 5864 5868 5871 5874 5878 5881 5884 5886 5889 5892 5894 5896 5897 5898 5899 5900 5901 5901 5902 5901 5901 5900 5899 5898 5897 5896 5894 5893 5891 5889 5887 5885 5883 5880 5878 5876 5873 5871 5869 5867 5864
5842 5847 5852 5856 5860 5863 5866 5871 5874 5877 5880 5883 5885 5889 5890 5892 5893 5894 5895 5896 5897 5897 5897 5897 5896 5895 5895 5894 5892 5891 5890 5888 5886 5884 5882 5879 5877 5874 5872 5870 5868 5865 5863 5860
5834 5839 5843 5848 5853 5855 5862 5865 5867 5870 5873 5876 5879 5882 5884 5886 5887 5888 5890 5891 5891 5892 5892 5892 5891 5891 5890 5889 5888 5887 5886 5884 5882 5880 5878 5875 5873 5871 5868 5866 5864 5861 5859 5857
5825 5830 5835 5839 5843 5847 5853 5857 5860 5863 5866 5869 5872 5874 5877 5879 5880 5882 5884 5884 5885 5886 5886 5886 5886 5886 5885 5884 5883 5882 5880 5879 5877 5875 5873 5871 5869 5866 5863 5861 5859 5857 5855 5853
5816 5821 5827 5830 5835 5839 5845 5849 5852 5857 5858 5862 5864 5866 5869 5871 5873 5876 5877 5877 5878 5879 5879 5880 5880 5879 5879 5878 5877 5876 5874 5873 5871 5869 5867 5865 5863 5861 5858 5856 5854 5852 5850 5847
5807 5812 5817 5822 5826 5831 5836 5840 5844 5849 5851 5853 5855 5858 5860 5863 5865 5867 5868 5870 5871 5872 5872 5873 5873 5872 5872 5871 5870 5869 5867 5866 5864 5862 5860 5858 5856 5854 5852 5850 5847 5845 5843 5841
5797 5802 5808 5813 5818 5824 5827 5831 5835 5838 5841 5843 5846 5849 5851 5854 5856 5858 5860 5861 5862 5863 5864 5864 5865 5865 5863 5862 5861 5861 5859 5858 5856 5854 5852 5850 5848 5847 5844 5842 5840 5837 5836 5834
5786 5792 5798 5804 5810 5813 5817 5821 5824 5828 5831 5834 5837 5839 5842 5844 5847 5848 5850 5852 5853 5854 5855 5856 5856 5856 5855 5854 5853 5852 5851 5849 5848 5846 5844 5841 5839 5838 5836 5834 5832 5829 5828 5826
5776 5782 5787 5793 5797 5802 5807 5811 5815 5818 5821 5824 5827 5830 5832 5835 5837 5839 5840 5842 5843 5844 5845 5846 5847 5847 5846 5845 5844 5843 5842 5841 5838 5836 5835 5833 5831 5828 5826 5824 5822 5821 5819 5818
5766 5772 5777 5782 5787 5792 5796 5801 5804 5808 5811 5814 5817 5819 5822 5824 5826 5828 5829 5831 5832 5833 5834 5835 5835 5835 5835 5835 5834 5833 5831 5830 5828 5826 5825 5823 5821 5819 5817 5815 5813 5812 5811 5809
5756 5762 5767 5771 5776 5781 5785 5789 5793 5797 5801 5804 5806 5808 5811 5813 5815 5817 5818 5820 5821 5822 5823 5823 5824 5823 5823 5823 5823 5823 5821 5820 5818 5816 5815 5813 5811 5809 5807 5806 5804 5803 5801 5800